Change the Weather History Date:

Sunday, July 28, 2013

  Actual Average Record
Temperature  
Mean Temperature 73 °F -  
Max Temperature 81 °F 81 °F 96 °F (1949)
Min Temperature 66 °F 58 °F 44 °F (1977)
Cooling Degree Days 8    
Growing Degree Days 23 (Base 50)    
Moisture  
Dew Point 65 °F    
Average Humidity 79    
Maximum Humidity 93    
Minimum Humidity 64    
Precipitation  
Precipitation 0.18 in - - ()
Sea Level Pressure  
Sea Level Pressure 30.01 in    
Wind  
Wind Speed 4 mph (ENE)    
Max Wind Speed 14 mph    
Max Gust Speed -    
Visibility 10 miles    
Events Rain    
Averages and records for this station are not official NWS values.
T = Trace of Precipitation, MM = Missing Value Source: NWS Daily Summary

Daily Weather History Graph

Daily Weather History Graph

Search for Another Location

Airport or City:

Trip Planner

Search our weather history database for the weather conditions in past years. The results will help you decide how hot, cold, wet, or windy it might be!

Date:

Astronomy

Jul. 28, 2013 Rise Set
Actual Time 5:32 AM EDT 8:10 PM EDT
Civil Twilight 5:00 AM EDT 8:43 PM EDT
Nautical Twilight 4:19 AM EDT 9:24 PM EDT
Astronomical Twilight 3:32 AM EDT 10:10 PM EDT
Moon 11:18 PM EDT 12:23 PM EDT
Length of Visible Light 15h 43m
Length of Day
14h 38m
Waning Gibbous, 61% of the Moon is Illuminated
Jul 28
Waning Gibbous
Jul 29
Last Quarter
Aug 6
New
Aug 14
First Quarter
Aug 20
Full

Hourly Weather History & Observations

Time (EDT) Temp. Heat Index Dew Point Humidity Pressure Visibility Wind Dir Wind Speed Gust Speed Precip Events Conditions
12:53 AM 69.1 °F - 63.0 °F 81% 30.02 in 10.0 mi South 4.6 mph - N/A   Clear
1:53 AM 66.9 °F - 63.0 °F 87% 30.03 in 10.0 mi Calm Calm - N/A   Clear
2:53 AM 66.9 °F - 63.0 °F 87% 30.02 in 10.0 mi Calm Calm - N/A   Scattered Clouds
3:53 AM 66.0 °F - 62.1 °F 87% 30.01 in 10.0 mi Calm Calm - N/A   Clear
4:53 AM 66.0 °F - 62.1 °F 87% 30.01 in 10.0 mi Calm Calm - N/A   Overcast
5:53 AM 66.0 °F - 63.0 °F 90% 30.02 in 10.0 mi NNW 3.5 mph - N/A   Overcast
6:53 AM 66.9 °F - 64.0 °F 90% 30.02 in 10.0 mi NNE 3.5 mph - N/A   Partly Cloudy
7:53 AM 68.0 °F - 64.0 °F 87% 30.03 in 10.0 mi North 3.5 mph - N/A   Overcast
8:53 AM 72.0 °F - 64.0 °F 76% 30.02 in 10.0 mi Calm Calm - N/A   Mostly Cloudy
9:53 AM 73.9 °F - 63.0 °F 68% 30.02 in 10.0 mi ESE 3.5 mph - N/A   Mostly Cloudy
10:53 AM 75.9 °F - 64.0 °F 67% 30.01 in 10.0 mi Calm Calm - N/A   Scattered Clouds
11:53 AM 78.1 °F - 64.9 °F 64% 30.00 in 10.0 mi NE 3.5 mph - N/A   Scattered Clouds
12:10 PM 78.8 °F - 66.2 °F 65% 29.96 in 10.0 mi NE 5.8 mph - N/A   Mostly Cloudy
12:53 PM 80.1 °F 82.7 °F 68.0 °F 67% 29.99 in 10.0 mi East 8.1 mph - N/A   Overcast
1:00 PM 78.8 °F - 66.2 °F 65% 29.97 in 10.0 mi East 8.1 mph - N/A   Mostly Cloudy
1:32 PM 78.8 °F - 68.0 °F 69% 29.97 in 10.0 mi East 9.2 mph - N/A   Mostly Cloudy
1:42 PM 80.6 °F 83.2 °F 68.0 °F 65% 29.97 in 10.0 mi ENE 11.5 mph - N/A   Mostly Cloudy
1:49 PM 78.8 °F - 68.0 °F 69% 29.97 in 10.0 mi East 11.5 mph - N/A   Mostly Cloudy
1:53 PM 78.1 °F - 68.0 °F 71% 30.00 in 10.0 mi East 11.5 mph - N/A   Mostly Cloudy
2:53 PM 78.1 °F - 66.9 °F 68% 30.00 in 10.0 mi East 10.4 mph - N/A   Mostly Cloudy
3:53 PM 75.9 °F - 68.0 °F 76% 30.00 in 10.0 mi East 13.8 mph - N/A   Scattered Clouds
3:59 PM 75.2 °F - 68.0 °F 78% 29.97 in 10.0 mi ENE 10.4 mph - N/A   Mostly Cloudy
4:53 PM 73.9 °F - 66.9 °F 79% 30.01 in 10.0 mi East 9.2 mph - N/A   Overcast
5:53 PM 73.0 °F - 66.9 °F 81% 30.01 in 10.0 mi ENE 8.1 mph - N/A   Overcast
6:53 PM 71.1 °F - 66.9 °F 87% 30.02 in 10.0 mi East 10.4 mph - 0.00 in Rain Light Rain
7:22 PM 69.8 °F - 66.2 °F 88% 29.99 in 10.0 mi East 6.9 mph - 0.00 in Rain Light Rain
7:53 PM 69.1 °F - 66.0 °F 90% 30.03 in 10.0 mi ENE 4.6 mph - 0.01 in Rain Light Rain
8:53 PM 66.9 °F - 64.9 °F 93% 30.04 in 7.0 mi ESE 4.6 mph - 0.07 in Rain Rain
9:53 PM 66.9 °F - 64.9 °F 93% 30.04 in 10.0 mi Calm Calm - 0.09 in Rain Light Rain
10:53 PM 66.0 °F - 64.0 °F 93% 30.03 in 10.0 mi East 4.6 mph - 0.01 in   Overcast
11:53 PM 66.0 °F - 64.0 °F 93% 30.05 in 5.0 mi Calm Calm - 0.00 in   Light Drizzle